Dosis diarias (en J/m2) de radiaci�n solar incidente en superficie.
Lugar de muestreo: Estaci�n de Fotobiolog�a Playa Uni�n (EFPU) en Playa Uni�n, Chubut, Argentina (-43.311263, -65.040969).
Datos aportados al Sistema Nacional de Datos del Mar.
Fecha,Dosis PAR,DosisUV-A,DosisUV-B
2008-02-07,8462822.2,1065801.0,42587.5
2008-02-08,3204472.2,429219.5,15332.0
2008-02-09,8081558.9,993351.7,36354.5
2008-02-10,7520830.3,935274.8,35577.7
2008-02-11,8255588.9,1003739.6,37292.8
2008-02-12,7326459.7,908592.5,33186.1
2008-02-13,7942395.9,980132.3,36114.5
2008-02-14,7515983.9,895341.1,31272.5
2008-02-15,10898139.0,1537445.0,39546.0
2008-02-16,10348873.7,1429698.1,36201.1
2008-02-17,7021104.3,1004303.2,24407.9
2008-02-18,8246325.5,1166189.2,29300.4
2008-02-19,9164901.2,1275570.7,32664.5
2008-02-20,8997245.3,1247816.1,31482.5
2008-02-21,9840650.8,1336018.1,33556.9
2008-02-22,9768883.4,1316200.0,33076.0
2008-02-23,9683858.6,1306392.0,32601.0
2008-02-24,3638279.5,559953.8,15434.2
2008-02-25,5845173.1,882906.8,21261.5
2008-02-26,8482795.0,1201550.1,29115.5
2008-02-27,9151618.4,1268550.0,30672.0
2008-02-28,8987302.4,1222739.8,29421.8
2008-02-29,7800790.2,1026548.9,25934.6
2008-03-01,8207519.5,1131322.6,28223.3
2008-03-02,9039567.4,1210963.3,29762.4
2008-03-03,8953807.2,1192808.9,28880.8
2008-03-04,8691229.1,1162098.0,28294.9
2008-03-05,6874929.3,968550.8,23512.0
2008-03-06,8083364.6,1093086.0,26054.6
2008-03-07,7885540.5,1047587.4,24879.3
2008-03-08,6672087.8,908474.5,22699.4
2008-03-09,8291740.9,1114508.2,25317.9
2008-03-10,8708378.4,1151544.2,27014.8
2008-03-11,8499024.0,1145412.7,25751.7
2008-03-12,8280900.9,1096884.0,25442.1
2008-03-13,8286949.5,1086531.7,24121.6
2008-03-14,7870001.8,1048448.3,23596.9
2008-03-15,7729109.8,1009048.3,22606.8
2008-03-16,6320104.1,861748.8,19214.6
2008-03-17,7644543.0,1002567.7,21152.5
2008-03-18,7339681.0,962836.0,21379.7
2008-03-19,6515489.5,873067.6,19484.2
2008-03-20,7513603.2,971865.0,21680.6
2008-03-21,7203186.4,956450.4,21206.6
2008-03-22,7661871.9,972483.8,20759.6
2008-03-23,6995370.7,902357.7,19601.4
2008-03-24,7270456.6,927165.7,20126.0
2008-03-25,6996338.6,900506.3,19505.9
2008-03-26,6936364.5,890061.8,18644.3
2008-03-27,7070295.2,895850.2,18964.2
2008-03-28,6692461.1,852216.5,18156.0
2008-03-29,6856800.0,860038.7,18274.4
2008-03-30,5843545.7,747286.8,15931.6
2008-03-31,6526179.5,822278.6,16981.3
2008-04-01,6308043.0,800491.4,16370.5
2008-04-02,6225937.5,781610.1,16004.6
2008-04-03,6248750.4,783036.2,15952.2
2008-04-04,3712778.9,504581.5,10228.0
2008-04-07,4557208.2,639916.7,12793.3
2008-04-08,2762922.9,402415.1,7888.1
2008-04-09,1964445.1,306877.2,6025.0
2008-04-10,5100793.0,664575.5,12437.2
2008-04-11,5458183.5,709994.7,12889.8
2008-04-12,3420497.3,490511.2,9197.3
2008-04-14,5309990.3,707834.0,12609.8
2008-04-15,4509018.2,601052.0,11004.1
2008-04-16,4624237.6,605513.2,10611.0
2008-04-17,5047643.0,652344.2,11655.0
2008-04-18,3921375.9,543081.0,9759.6
2008-04-19,4603488.3,601750.7,10799.8
2008-04-20,2773127.8,400300.0,7493.7
2008-04-21,1200523.6,191858.5,3067.4
2008-04-22,4626953.4,585790.5,9650.7
2008-04-23,4541070.5,577096.5,9669.4
2008-04-24,4549002.6,572689.7,9534.3
2008-04-25,4441938.2,560371.3,9376.4
2008-04-26,3292579.2,441255.7,7252.5
2008-04-27,1591851.0,245245.3,4047.6
2008-04-28,2410782.4,347901.3,4960.5
2008-04-29,4063813.9,525933.9,8224.3
2008-04-30,3972804.1,512074.2,7923.4
2008-05-01,3390047.5,458127.1,7096.8
2008-05-02,3832721.1,492435.1,7523.1
2008-05-03,3454337.1,444666.3,6613.4
2008-05-04,3634985.1,462943.6,6767.0
2008-05-05,2374288.9,330619.8,4803.4
2008-05-06,2339606.4,337602.6,4778.9
2008-05-07,3308919.8,423680.5,6203.8
2008-05-08,2497333.8,343264.5,5035.7
2008-05-09,3401793.5,425737.0,6127.0
2008-05-10,3336125.0,416997.4,5889.5
2008-05-11,2380460.8,317986.2,4170.1
2008-05-12,3075652.6,389048.8,5261.4
2008-05-13,2513482.8,338309.6,4590.7
2008-05-14,1646536.5,220410.9,2992.6
2008-05-15,1796521.6,268804.0,3604.1
2008-05-16,1784326.2,270183.3,3810.2
2008-05-17,2072001.9,282868.8,4376.8
2008-05-19,2827161.9,377957.2,5194.3
2008-05-20,1256430.8,191544.1,2360.3
2008-05-21,1129118.8,182557.3,2217.0
2008-05-22,1239950.4,179377.7,2193.9
2008-05-23,2142545.2,315920.3,3611.9
2008-05-24,2627835.5,346431.5,4082.7
2008-05-25,998353.8,159146.9,1865.3
2008-05-26,2666722.8,349039.2,4307.5
2008-05-27,2538321.1,330595.0,3701.2
2008-05-28,2506116.9,331785.0,4028.1
2008-05-29,2356164.2,324036.9,3916.4
2008-05-30,2555289.4,332282.9,3859.6
2008-05-31,2521496.8,328982.8,3910.0
2008-06-01,2441961.0,322651.1,3841.2
2008-06-02,1831688.9,267483.3,2588.5
2008-06-03,450731.9,101092.6,869.6
2008-06-04,2254983.3,333312.2,3537.4
2008-06-05,2198659.6,336656.2,3576.3
2008-06-06,2243031.1,315334.8,3519.1
2008-06-07,2048318.6,312117.2,3078.7
2008-06-08,1528049.6,219091.6,2105.3
2008-06-09,1985353.8,283679.3,2976.5
2008-06-10,2295173.2,306614.6,3270.6
2008-06-11,2086994.8,307190.9,3239.1
2008-06-12,2188965.3,305539.8,3395.4
2008-06-13,1366703.7,233850.3,2307.9
2008-06-14,1877708.0,278337.6,2927.8
2008-06-15,2041437.4,291919.8,3482.8
2008-06-16,1559778.7,246847.9,2793.5
2008-06-17,1845271.2,272467.4,3017.3
2008-06-18,1997389.9,288740.7,3067.4
2008-06-19,2028458.7,286578.2,2985.2
2008-06-20,1726984.0,252466.6,2757.2
2008-06-21,2135270.0,291650.0,3076.8
2008-06-22,1992448.9,282886.4,3076.1
2008-06-23,1789122.0,277386.0,2639.2
2008-06-24,1635736.7,273393.5,2598.1
2008-06-25,1800099.1,285762.5,2793.4
2008-06-26,1469285.1,215537.6,2394.3
2008-06-27,1090086.7,181820.1,1907.5
2008-06-28,1492276.8,228296.5,2557.9
2008-06-29,1339284.9,200545.1,2141.1
2008-06-30,1907370.5,287089.1,2957.0
2008-07-01,2043830.9,289427.4,3102.7
2008-07-02,2060574.1,309623.6,3279.1
2008-07-03,2085801.5,293921.8,3244.0
2008-07-04,1694262.2,244933.8,2512.5
2008-07-05,1721857.2,255037.8,2997.6
2008-07-06,2184822.5,305432.9,3645.6
2008-07-07,2021827.2,284533.4,3322.4
2008-07-08,2062838.1,310717.0,2957.7
2008-07-09,1699930.7,254864.4,2858.9
2008-07-10,888487.0,141143.9,1574.5
2008-07-11,1661478.7,240354.5,2547.8
2008-07-12,644343.9,103753.3,1144.7
2008-07-13,2311208.8,314458.8,3769.7
2008-07-14,1766141.6,264999.7,3253.8
2008-07-15,2299707.6,357127.0,4103.8
2008-07-16,1843605.4,279676.7,3311.3
2008-07-18,2319548.9,331348.6,4186.3
2008-07-19,2653554.9,358665.7,4290.7
2008-07-20,1164014.0,192225.5,2260.6
2008-07-21,1594638.2,252168.6,2894.7
2008-07-22,1454821.5,225743.5,2720.2
2008-07-23,1619833.9,274186.5,2984.7
2008-07-24,2941811.5,395424.2,4825.9
2008-07-25,2290136.7,318387.9,3955.6
2008-07-26,3021277.5,403563.5,5164.6
2008-07-27,3088120.9,411703.2,5119.0
2008-07-28,2605159.3,364466.6,4579.6
2008-07-29,3138154.7,446731.0,5390.3
2008-07-30,1542110.0,240832.5,3064.5
2008-07-31,3317031.1,443002.0,6060.5
2008-08-01,1751517.0,296546.2,3704.5
2008-08-02,2368761.6,363814.7,5044.6
2008-08-03,3009239.0,422356.7,5734.6
2008-08-04,2878789.0,411935.8,5002.9
2008-08-05,1951347.3,298772.0,4190.5
2008-08-06,3319317.8,455386.7,6248.5
2008-08-07,3685355.6,496158.4,6686.6
2008-08-08,3798839.2,507249.4,7289.9
2008-08-09,1539343.4,248583.0,3236.3
2008-08-10,3214195.8,443946.3,6189.7
2008-08-11,3512790.3,469320.6,6645.7
2008-08-12,3122626.8,445264.0,6850.9
2008-08-13,4086653.9,548308.2,8038.9
2008-08-14,4053007.0,550561.2,8822.7
2008-08-15,1431125.7,236743.9,3490.1
2008-08-16,2242287.8,338100.6,4778.3
2008-08-17,1821236.1,281263.8,4748.8
2008-08-18,4319829.7,590911.4,9195.9
2008-08-19,2010276.3,323070.5,5049.0
2008-08-20,3150468.4,466025.7,7284.8
2008-08-21,4512308.4,607095.6,9814.8
2008-08-22,4675624.6,630924.9,10404.5
2008-08-23,4832277.2,640392.2,10748.9
2008-08-24,4086005.9,571713.9,9936.8
2008-08-26,3117813.1,441571.6,7788.3
2008-08-27,5206850.7,689485.9,11564.0
2008-08-28,2685307.6,397688.5,6264.2
2008-08-29,5047184.4,674260.2,11884.0
2008-09-02,4481132.9,644987.9,12065.2
2008-09-03,4109364.3,590751.2,10669.4
2008-09-04,5887548.3,777810.7,14342.5
2008-09-06,6239421.1,799402.3,14181.6
2008-09-07,5381497.2,720976.9,13343.5
2008-09-08,5946682.4,789819.0,13654.5
2008-09-09,6211756.4,810534.8,14918.4
2008-09-10,2962746.6,443808.8,8557.8
2008-09-11,5190032.9,719089.1,13657.3
2008-09-12,6444268.9,847725.1,16073.0
2008-09-13,3488821.6,522851.3,10680.1
2008-09-14,5625527.4,765129.3,15307.5
2008-09-15,6410435.7,834038.9,16480.0
2008-09-16,6282857.5,810770.8,16150.8
2008-09-17,3660685.8,551487.9,10874.3
2008-09-18,6820886.5,900729.7,18191.7
2008-09-19,6297024.2,849771.7,16842.9
2008-09-20,6740963.5,893663.5,18310.5
2008-09-21,7010865.6,921765.9,20139.7
2008-09-22,4577781.8,666724.5,14826.8
2008-09-23,6556484.3,856348.7,18490.8
2008-09-24,7131974.9,931408.8,19973.0
2008-09-25,4640724.3,658882.8,14478.8
2008-09-26,6457579.5,832957.1,18046.2
2008-09-27,6470463.0,889917.7,19375.0
2008-09-29,7578491.9,1031808.2,24180.0
2008-10-01,7590709.0,1014634.3,22158.6
2008-10-02,7713555.7,1034332.3,23322.0
2008-10-03,7813397.4,1050668.4,22748.4
2008-10-04,8148263.7,1100300.3,24711.8
2008-10-05,7214655.7,992343.2,23452.8
2008-10-06,7692550.3,1063562.4,24946.9
2008-10-07,8910751.8,1178853.7,26304.3
2008-10-08,8713658.6,1151788.2,26343.2
2008-10-09,6888240.3,924847.8,21017.3
2008-10-10,7917435.9,1072030.0,24303.6
2008-10-11,8669453.2,1145337.0,24926.5
2008-10-14,9156851.7,1225655.4,27340.6
2008-10-15,9231544.4,1229715.8,27769.4
2008-10-16,8830628.0,1192289.5,27205.8
2008-10-17,7289064.8,1003413.9,22592.3
2008-10-18,8755619.0,1218674.1,27982.9
2008-10-19,4496978.0,662556.3,16501.2
2008-10-20,9586401.7,1322955.2,30920.9
2008-10-21,7978784.5,1113360.3,24862.7
2008-10-22,8325158.8,1164005.2,27961.2
2008-10-23,10229039.1,1384585.9,33538.5
2008-10-24,9856639.9,1366559.8,31350.5
2008-10-25,5963611.6,866933.8,21910.8
2008-10-26,10439498.2,1409758.7,33099.0
2008-10-27,7502924.1,1066898.8,25633.2
2008-10-28,10144625.7,1377030.4,32366.6
2008-10-29,9558312.9,1329392.8,33112.1
2008-10-30,10697295.3,1447959.8,34885.2
2008-10-31,10701749.3,1444873.8,34736.3
2008-11-01,8564150.0,1198513.1,29434.7
2008-11-02,10203801.4,1394747.6,33224.4
2008-11-03,10161598.6,1392146.1,33274.3
2008-11-04,5987767.8,873303.1,21636.0
2008-11-05,4838606.0,726691.5,16266.5
2008-11-06,8155779.1,1178309.5,29431.6
2008-11-07,6899251.7,974863.1,24525.5
2008-11-08,11209424.0,1523188.6,36105.6
2008-11-09,11331839.8,1554902.5,38047.0
2008-11-10,10753749.6,1482586.6,36191.8
2008-11-11,9918991.1,1403894.1,35651.0
2008-11-12,11468429.0,1573545.1,38370.7
2008-11-13,11509946.2,1596283.8,37055.0
2008-11-14,4720743.8,754557.7,19186.0
2008-11-16,6374036.7,953595.7,24020.8
2008-11-17,10613409.4,1481735.5,36798.8
2008-11-18,10766851.3,1511311.0,37668.9
2008-11-19,10118430.8,1443747.8,40965.7
2008-11-21,6769117.7,971314.6,24413.3
2008-11-22,10852835.9,1483105.9,36485.8
2008-11-23,10316335.4,1424441.7,35755.5
2008-11-24,7253397.9,1042249.7,25720.2
2008-11-25,11516176.3,1562313.6,38548.5
2008-11-26,7098317.2,1056635.1,27660.7
2008-11-27,7537424.7,1091848.2,26884.9
2008-11-28,5690698.0,864451.3,21592.5
2008-11-29,5441196.1,817515.0,20416.1
2008-11-30,11738241.8,1646621.5,41646.3
2008-12-01,12684344.4,1758160.3,58114.5
2008-12-02,12736428.3,1763182.4,57551.1
2008-12-03,6853286.4,1053468.8,34074.5
2008-12-04,2749671.6,457335.9,13272.5
2008-12-05,12679851.6,1775267.9,58687.9
2008-12-06,12809024.9,1770243.2,57220.6
2008-12-07,12788308.1,1766959.5,58121.8
2008-12-08,12222428.5,1724026.7,56553.2
2008-12-09,9012906.7,1345110.2,44992.3
2008-12-10,12755830.4,1769407.3,56821.3
2008-12-11,8932389.3,1281468.9,41683.6
2008-12-12,9421023.9,1385501.2,47530.1
2008-12-13,8452788.3,1219267.2,41625.3
2008-12-14,12301155.5,1697651.6,56914.1
2008-12-15,9815409.8,1372505.2,46577.1
2008-12-16,10369145.0,1469791.9,49285.2
2008-12-17,12296590.9,1684977.5,54637.7
2008-12-18,12712116.8,1728094.2,56502.1
2008-12-21,12679588.5,1725904.7,55170.4
2008-12-22,10114304.4,1442040.5,49921.4
2008-12-23,11809825.0,1690428.4,56392.3
2008-12-24,10608251.0,1494384.9,48264.8
2008-12-25,11741323.7,1649385.1,54361.4
2008-12-26,12717062.4,1757229.2,56575.5
2008-12-27,10722063.3,1515163.5,51417.7
2008-12-28,12182056.3,1687906.7,53805.3
2008-12-29,11005365.6,1579894.9,50081.4
2008-12-30,12456979.8,1712589.3,55576.0
2008-12-31,12764816.9,1735841.3,55560.8
